Probability
0 0 0 0 0 0 0 0 0 0 0 1 2 4 5 5 6 7 7 6 6 7 9 11 11 10 7 6 8 9 10 11 12 12 13 14 14 12 7 2 0 0 0 0
0 0 0 0 0 0 0 0 0 0 0 0 1 3 3 3 4 5 6 6 6 7 7 9 11 11 9 8 10 10 9 9 10 10 12 13 14 12 9 5 2 1 0 0
0 0 0 0 0 0 0 0 0 0 0 0 0 1 2 2 2 3 3 5 6 6 6 6 9 12 12 11 11 11 10 9 8 9 11 13 14 13 12 10 6 3 1 1
0 0 0 0 0 0 0 1 1 1 0 1 2 4 4 2 2 2 3 6 8 8 6 5 7 11 14 13 11 13 13 12 12 13 15 16 16 14 13 12 9 6 4 3
0 0 0 0 0 0 0 1 2 2 2 3 5 7 6 5 5 6 9 11 12 11 10 8 9 12 16 15 14 16 18 19 20 20 20 21 18 14 12 11 10 8 7 6
0 0 0 0 0 0 1 2 3 3 5 6 7 7 8 9 11 13 15 16 18 18 15 13 13 15 18 18 17 18 20 22 24 24 25 25 21 14 12 11 9 7 7 6
0 0 0 0 0 0 1 2 2 3 6 7 7 8 11 14 17 19 19 19 22 24 22 19 19 20 22 22 20 19 21 23 24 24 25 25 21 14 11 9 8 7 6 6
0 0 0 0 0 1 2 2 2 3 5 6 7 10 14 17 20 21 22 23 24 26 25 23 24 25 25 24 22 22 24 24 22 22 22 23 20 15 11 9 8 7 6 6
2 2 2 2 3 4 5 4 4 5 7 7 8 12 16 17 19 22 25 26 25 25 25 25 25 27 27 25 24 24 25 23 21 20 19 18 17 15 13 12 11 10 8 7
6 6 6 6 7 8 9 8 8 8 10 10 12 15 16 17 20 23 26 27 25 24 24 24 24 26 27 26 25 25 24 23 23 22 19 15 15 15 15 15 14 13 10 9
7 8 8 9 10 10 10 11 12 12 12 13 16 19 19 20 22 23 26 27 26 25 26 24 23 24 26 27 27 27 26 25 25 24 19 14 13 13 13 14 13 11 10 9
5 5 6 8 10 9 8 10 13 14 13 14 18 22 24 25 25 25 26 26 25 26 27 25 22 21 25 27 29 29 28 27 26 23 20 16 13 11 9 9 7 6 6 7
5 6 9 10 10 8 9 11 13 14 14 15 17 22 25 27 27 26 25 22 21 23 25 24 20 19 24 29 31 31 29 28 26 23 20 16 14 11 9 7 5 3 2 2
8 10 12 13 12 12 15 17 16 15 15 16 18 20 23 25 25 23 21 18 17 20 22 22 20 19 22 27 31 32 30 27 27 25 21 18 16 15 14 12 10 6 3 1
11 11 12 14 16 17 18 19 19 17 16 18 19 19 21 22 21 19 16 15 17 20 21 21 21 21 21 24 27 30 29 27 26 26 24 22 21 20 19 18 16 11 7 5
11 11 11 15 17 16 15 16 16 15 15 16 18 19 20 19 18 16 14 15 18 20 20 20 22 23 23 24 26 28 28 24 24 26 27 25 23 22 21 21 19 15 11 9
11 10 11 14 15 12 11 10 10 11 12 13 16 20 22 21 18 16 15 15 17 18 19 19 21 24 25 26 25 25 22 19 19 24 26 24 21 19 20 20 20 18 15 13
9 9 9 11 11 9 7 6 6 7 9 11 13 18 22 23 20 16 15 13 14 15 16 17 17 20 23 23 21 18 15 13 14 18 21 20 17 15 16 17 18 17 16 15
8 8 8 8 8 7 5 4 4 5 6 8 11 14 16 16 16 14 12 11 11 12 13 12 13 14 17 17 16 14 13 11 11 13 14 13 12 13 14 14 14 15 14 14
7 8 9 9 8 6 4 3 3 3 3 4 8 10 9 8 8 8 8 8 9 9 9 10 11 12 13 14 13 14 14 13 13 12 10 8 8 11 12 13 13 13 12 11
6 7 8 8 7 5 3 3 3 2 1 3 5 6 6 4 4 4 5 5 5 5 6 7 9 10 11 10 11 13 14 14 14 13 10 7 7 8 10 11 11 11 10 9
4 6 6 6 6 4 2 2 2 2 2 2 3 3 3 3 3 3 3 4 3 3 4 5 6 6 6 6 8 11 12 12 13 13 11 9 7 7 7 8 8 8 8 8
2 4 4 4 3 2 1 0 1 1 1 1 1 0 1 2 3 3 3 3 3 3 3 3 2 2 2 3 6 8 10 11 12 12 11 9 8 7 6 6 7 8 7 7
1 2 2 1 1 1 0 0 1 1 1 1 1 0 0 1 2 3 3 3 3 2 2 2 1 0 1 1 3 6 8 10 11 10 9 9 8 6 5 6 7 9 8 7
0 0 0 0 0 0 0 0 1 2 2 2 1 0 0 0 2 3 3 3 2 2 2 1 0 0 0 0 2 4 6 8 8 8 7 6 5 5 5 6 7 9 9 8
0 0 0 0 0 0 0 0 1 1 1 1 1 0 0 1 2 3 3 3 2 1 1 1 0 0 0 0 1 3 4 5 5 5 4 4 3 4 4 5 5 6 7 7
0 0 0 0 0 0 0 0 0 0 0 0 0 0 0 1 2 3 3 3 2 1 1 0 0 0 0 0 1 2 3 3 3 3 3 3 3 4 4 4 4 3 3 3
Wind_Speed
4 4 5 4 7 8 6 8 9 9 8 9 7 7 6 5 6 7 7 7 9 8 8 7 7 7 7 7 6 6 6 6 5 4 4 4 4 3 4 3 3 3 2 2
1 2 3 3 6 8 6 5 5 4 8 7 3 3 4 5 7 8 8 8 8 8 8 8 9 8 8 7 7 7 7 6 5 4 4 4 4 4 4 3 3 3 2 2
3 1 3 4 7 7 5 5 7 8 9 3 4 6 8 8 8 9 8 8 9 8 8 8 8 9 9 8 7 7 7 6 6 6 5 5 5 4 4 4 3 3 2 2
4 4 6 8 3 5 5 5 5 5 4 5 6 5 4 4 7 7 7 8 8 8 7 6 6 6 7 7 8 8 7 6 6 6 6 5 5 5 4 3 3 3 2 2
5 4 4 4 2 4 5 4 3 4 3 2 3 4 1 2 5 7 7 7 7 7 6 6 7 7 7 7 7 7 8 7 7 7 7 6 6 5 4 3 3 2 2 2
5 5 7 7 3 2 5 4 3 4 5 5 6 3 5 4 4 5 5 5 6 6 6 6 6 7 8 7 7 8 8 8 7 7 8 7 7 6 4 4 4 3 2 2
4 3 7 6 3 3 6 8 3 5 5 6 6 6 4 5 5 5 5 5 6 7 6 6 7 8 7 7 7 7 6 6 7 7 8 7 6 5 4 4 4 3 3 2
5 4 7 3 2 6 7 3 2 4 5 5 4 2 3 5 5 5 5 5 6 6 5 5 7 8 7 7 6 5 6 6 6 6 6 6 6 5 4 5 4 3 3 2
7 7 5 3 4 4 2 2 2 3 3 5 4 3 4 4 4 4 4 5 5 6 5 5 6 7 8 7 6 6 6 6 5 5 5 5 6 6 5 4 4 3 3 3
1 3 3 3 2 2 1 2 1 3 5 6 5 5 4 4 3 3 3 4 4 6 5 4 5 6 6 6 7 7 6 5 5 5 5 5 4 5 5 5 5 4 4 4
1 3 2 3 2 2 2 1 3 3 3 5 6 5 5 5 4 3 3 3 4 5 5 5 5 4 4 5 7 7 6 5 5 5 5 5 4 4 5 5 6 6 6 5
5 5 3 3 3 1 1 1 3 4 3 3 5 5 5 4 3 4 4 3 4 4 4 4 4 4 4 6 7 7 6 5 5 4 4 4 4 2 2 3 5 7 7 6
5 3 2 2 1 1 1 1 2 3 4 4 4 5 6 4 3 4 4 4 4 4 3 3 4 4 4 5 6 7 6 6 4 5 5 5 5 5 3 2 3 5 7 8
3 2 1 0 1 1 3 4 4 4 4 4 4 5 6 5 4 4 3 3 3 3 3 3 3 2 3 4 5 6 6 6 6 5 5 5 5 5 5 5 4 3 4 7
0 2 4 3 3 3 4 5 6 5 4 4 4 4 5 5 4 2 2 2 2 3 3 3 3 2 2 3 4 5 5 4 5 4 4 5 4 4 4 5 4 3 2 3
2 3 4 4 4 3 4 5 5 4 3 3 3 3 3 4 4 3 2 2 2 2 2 3 3 3 3 3 3 3 3 5 5 4 4 4 4 4 4 4 5 4 4 4
4 3 3 3 3 3 3 3 3 3 3 3 2 3 3 4 3 2 1 1 1 2 2 2 2 2 3 3 3 2 2 3 4 4 4 4 4 5 5 5 5 5 5 5
3 4 4 5 4 4 3 3 3 3 2 2 3 4 3 3 2 1 1 1 1 1 1 0 1 1 2 2 2 2 2 2 3 3 3 4 4 4 4 4 5 5 3 3
2 3 3 3 3 4 3 2 2 2 2 2 3 3 1 1 1 1 1 1 1 1 2 1 1 2 2 2 2 2 2 2 2 2 3 3 4 4 4 4 4 4 4 3
2 2 3 3 3 3 2 2 2 2 2 2 3 3 1 1 1 1 2 1 1 2 2 2 1 2 2 2 3 2 2 3 3 3 2 3 3 4 4 4 4 4 4 4
2 2 2 3 3 2 1 2 2 1 1 1 2 2 1 2 1 1 1 1 2 2 2 2 1 1 2 2 3 2 2 2 2 3 3 3 3 3 4 4 4 4 4 4
2 2 2 2 3 2 0 1 1 1 1 0 1 1 1 1 1 1 2 3 3 2 1 1 1 1 1 2 2 2 2 3 3 3 3 4 4 4 4 4 4 4 4 4
1 2 2 2 2 1 0 0 1 2 1 2 2 2 2 2 2 2 3 2 2 2 2 2 2 2 2 2 2 2 3 3 3 3 4 4 4 4 4 4 4 4 4 3
1 1 1 1 2 2 0 1 0 1 1 2 2 3 3 2 2 2 2 3 3 3 2 2 3 4 3 2 2 3 3 3 3 3 3 3 3 3 3 4 3 3 3 4
0 0 1 1 1 1 1 1 0 0 0 1 2 3 2 2 2 2 1 2 3 2 2 3 4 4 2 2 2 3 3 3 3 3 3 3 3 3 3 3 3 3 3 3
1 0 0 1 1 1 1 1 1 1 1 1 2 2 1 1 1 1 1 2 2 2 2 2 2 2 1 2 2 3 3 2 3 3 3 3 4 3 3 3 4 3 3 3
1 0 0 1 1 1 0 1 1 1 1 1 2 2 1 1 1 1 1 1 1 1 1 1 1 1 1 1 2 2 2 2 2 2 2 2 3 3 3 3 3 3 3 3
Wind_Direction
196 188 166 171 176 176 177 177 177 215 224 244 226 206 198 180 159 158 164 167 170 171 169 169 173 172 173 174 171 168 166 172 185 182 168 155 148 144 139 136 137 132 117 103
157 193 180 181 191 188 192 179 193 201 243 247 218 158 170 174 168 172 177 178 177 175 173 175 176 176 175 177 171 163 171 179 174 164 160 159 157 151 145 141 135 128 128 131
199 222 117 223 204 189 193 190 174 200 229 196 176 188 190 186 183 186 185 180 178 181 186 188 183 176 177 176 165 165 174 174 170 165 165 168 163 157 160 160 150 141 139 145
142 120 202 235 224 184 186 201 202 218 218 194 193 188 179 177 184 189 185 184 186 185 186 182 173 166 162 159 161 168 173 175 172 167 169 167 164 169 172 161 159 163 166 162
130 164 245 282 209 167 171 236 218 207 204 170 111 84 340 210 187 192 188 185 183 178 172 165 165 160 154 159 163 172 181 182 179 173 171 171 175 175 171 165 166 170 165 162
128 151 212 233 243 206 140 251 232 179 173 159 124 143 239 207 178 175 168 164 157 148 142 153 162 152 154 164 171 186 189 184 177 173 173 178 181 173 167 168 171 164 162 173
145 182 246 249 276 122 155 233 231 177 177 170 183 198 200 155 161 167 159 153 147 143 152 162 158 151 158 167 187 193 180 170 170 176 178 178 172 167 160 158 155 161 166 179
146 170 242 277 120 167 210 239 190 177 182 184 190 152 123 138 155 156 144 137 144 144 151 152 153 152 158 180 185 165 160 161 171 175 175 170 164 162 158 159 163 175 176 191
181 205 241 245 219 235 202 196 196 178 182 170 156 153 134 139 147 146 142 140 142 144 144 146 157 160 170 183 161 153 158 165 168 165 165 163 165 165 163 168 181 189 191 205
219 268 278 283 288 304 267 234 207 167 156 154 152 151 142 137 139 132 126 136 136 137 145 156 164 171 179 167 156 156 164 169 166 165 168 170 171 172 176 183 188 193 198 211
234 274 329 324 315 318 344 58 99 111 136 150 137 137 143 140 143 134 121 126 132 148 160 168 164 167 163 153 155 160 167 171 172 175 175 178 183 189 191 198 195 193 200 202
212 217 193 247 288 337 40 64 112 116 108 117 132 138 131 132 136 131 132 130 130 136 138 150 152 158 160 160 161 161 170 177 180 179 178 180 179 184 204 208 205 206 206 200
215 212 205 231 313 2 68 67 81 112 132 127 116 126 123 119 125 121 124 129 140 146 145 143 146 154 160 165 164 168 177 180 180 182 183 187 187 189 202 220 211 211 214 214
199 145 96 105 71 39 71 68 76 76 78 95 105 115 119 113 114 120 134 144 147 142 148 147 136 151 167 165 168 175 179 184 185 190 191 194 196 199 200 204 215 228 225 218
324 160 164 124 83 66 74 83 83 76 76 77 93 112 118 121 129 127 115 116 121 133 148 144 146 176 176 168 176 181 182 188 191 192 193 196 196 199 204 207 214 221 226 229
78 82 98 102 108 101 93 93 96 90 89 87 89 98 110 114 113 109 110 122 141 170 181 170 179 191 175 166 166 178 188 193 188 188 190 194 195 200 207 213 215 216 222 222
123 126 133 141 133 116 104 110 122 126 109 98 93 90 95 97 96 102 113 143 161 185 185 176 181 170 161 158 159 169 180 185 180 183 196 200 202 207 211 215 220 225 228 216
164 175 172 164 151 132 116 106 107 105 106 112 105 93 99 116 133 166 176 118 78 48 17 194 152 153 157 160 162 167 172 182 191 200 204 208 210 211 210 216 224 229 235 218
139 143 144 135 130 125 122 129 127 119 107 105 110 109 109 101 143 184 170 126 101 319 302 297 174 170 177 180 168 171 180 189 202 213 212 207 212 219 216 216 224 227 224 215
110 113 117 114 113 123 133 135 120 104 102 115 114 110 98 259 209 169 148 167 232 243 253 260 219 195 196 188 169 177 190 200 210 214 213 215 220 225 224 220 223 226 223 220
114 116 117 112 97 91 129 146 135 131 127 126 135 153 190 239 231 181 164 251 276 266 247 231 225 223 210 193 181 189 197 203 216 223 220 217 222 231 234 229 223 222 224 225
119 126 138 135 120 103 75 118 133 132 144 178 207 199 193 228 250 263 243 241 252 259 262 245 241 240 233 209 204 201 205 212 219 224 223 220 217 220 224 228 228 224 222 222
130 143 154 143 140 147 125 113 142 151 176 212 220 221 232 244 236 229 263 261 241 232 230 234 242 238 234 220 217 215 214 221 224 224 228 227 224 222 220 223 221 217 217 221
110 141 168 160 134 122 152 269 219 184 202 237 241 231 221 236 264 252 239 250 245 234 237 241 242 239 231 222 221 227 228 227 228 229 229 228 225 223 223 222 223 218 213 216
139 114 119 122 124 187 217 230 56 32 294 278 276 266 246 220 226 249 244 242 240 237 254 253 245 245 241 235 232 234 236 236 230 223 222 220 221 220 219 218 220 219 216 218
154 145 251 236 229 232 226 192 168 171 222 280 298 293 280 254 226 236 241 242 240 236 244 253 243 240 245 238 237 238 236 235 229 225 222 221 222 220 212 208 212 214 216 218
74 75 25 348 320 277 237 188 182 190 209 227 275 287 277 264 246 238 238 245 248 248 253 259 253 245 247 243 239 238 235 236 232 230 230 230 229 222 212 207 205 206 211 213